Location: Unspecified
(0.0000°N, 0.0000°E)
Time: 14:35:26
(UTC+00:00)

Envisat - Pass Details

Date: 25 April 2018
Orbit: 764 x 766 km, 98.2° (Epoch: 16 November)

Event Time Altitude Azimuth Distance (km) Brightness Sun altitude
Exits shadow 19:51:33 56° 5° (N) 908 3.3 -27.6°
Drops below altitude 10° 19:55:31 10° 352° (N) 2,290 5.7 -28.5°
Sets 19:57:48 0° 351° (N) 3,213 6.5 -29.1°
